Regional Weather Roundup
Issued by NWS Raleigh/Durham, NC

Home | Current Version | Previous Version | Text Only | Print | Product List | Glossary On
Versions: 1 2 3 4 5 6 7 8 9 10 11 12 13 14 15 16 17 18 19 20 21 22 23 24 25 26 27
000
ASUS42 KRAH 281510
RWRRAH
NORTH CAROLINA WEATHER ROUNDUP
NATIONAL WEATHER SERVICE RALEIGH NC
1100 AM EDT SUN MAY 28 2017

NOTE: "FAIR" INDICATES FEW OR NO CLOUDS BELOW 12,000 FEET WITH NO
SIGNIFICANT WEATHER AND/OR OBSTRUCTIONS TO VISIBILITY.

NCZ001-053-055-056-065-067-281600-
WESTERN NORTH CAROLINA

CITY           SKY/WX    TMP DP  RH WIND       PRES   REMARKS
ASHEVILLE      CLOUDY    65  59  81 CALM      29.94F
JEFFERSON      MOSUNNY   65  55  67 NW3       29.96F
MORGANTON      CLOUDY    74  60  62 CALM      29.93F
HICKORY        CLOUDY    73  63  70 CALM      29.88F
RUTHERFORDTON  CLOUDY    70  67  92 SW5       29.91R
MOUNT AIRY     PTSUNNY   75  63  65 CALM      29.90F
BOONE          CLOUDY    66  54  63 W10       29.97F
$$

NCZ021-022-025-041-071-084-088-281600-
CENTRAL NORTH CAROLINA

CITY           SKY/WX    TMP DP  RH WIND       PRES   REMARKS
CHARLOTTE      PTSUNNY   79  62  56 W5        29.87F
GREENSBORO     CLOUDY    74  67  78 W8        29.88F
WINSTON-SALEM  PTSUNNY   72  63  73 SW3       29.90F
RALEIGH-DURHAM CLOUDY    79  66  64 SW14      29.87S
FORT BRAGG     MOSUNNY   84  66  53 SW13      29.86S
FAYETTEVILLE   PTSUNNY   85  66  53 W12       29.86F
BURLINGTON     CLOUDY    77  66  68 SW10      29.87S
LAURINBURG     MOSUNNY   84  65  52 W18G32    29.89S
$$

NCZ011-015-027-028-043-044-047-080-103-281600-
NORTHEASTERN NORTH CAROLINA

CITY           SKY/WX    TMP DP  RH WIND       PRES   REMARKS
ROCKY MT-WILSO MOSUNNY   80  67  64 S6        29.85S
GREENVILLE     SUNNY     82  70  65 SW10      29.88R HAZE
WASHINGTON     SUNNY     82  70  67 SW5       29.87S
ELIZABETH CITY CLOUDY    77  70  79 SE5       29.86S
MANTEO         CLOUDY    76  68  75 SE7       29.87S
CAPE HATTERAS  CLOUDY    80  73  79 SW7       29.88R
$$

NCZ078-087-090-091-093-098-101-281600-
SOUTHEASTERN NORTH CAROLINA

CITY           SKY/WX    TMP DP  RH WIND       PRES   REMARKS
LUMBERTON      SUNNY     85  66  53 W14       29.88S
GOLDSBORO      SUNNY     84  73  70 SW10      29.84F
KINSTON        SUNNY     86  68  54 SW6       29.86F
KENANSVILLE    SUNNY     84  70  61 W13G18    29.87S
NEW BERN       SUNNY     87  68  52 SW12G18   29.87F
CHERRY POINT   SUNNY     88  68  51 SW13G18   29.87F
BEAUFORT       MOSUNNY   82  74  76 SW10      29.88R
JACKSONVILLE   SUNNY     85  71  63 SW12G18   29.87S
WILMINGTON     SUNNY     85  71  63 SW12      29.89S
$$





USA.gov is the U.S. government's official web portal to all federal, state and local government web resources and services.